Home   Weather   Ushuaia   Past weeks

Flag for Argentina Past Weather in Ushuaia, Tierra del Fuego, Argentina — Yesterday and Last 2 Weeks

Now
46 °F

Broken clouds.


Feels Like: 44 °F
Forecast: 41 / 57 °F
Wind: 6 mph from North

Location: Ushuaia Aerodrome

Current Time: Sep 28, 2016 at 12:38:17 PM

Latest Report: Sep 28, 2016 at 12:00 PM


Visibility: N/A

Pressure: 30.09 "Hg

Humidity: 66%

Dew Point: 36 °F

Location of UshuaiaLocation

Past Weather in Ushuaia — Graph

°F

Ushuaia Temperature Yesterday

Maximum temperature yesterday: 48 °F (at 1:00 PM)
Minimum temperature yesterday: 36 °F (at 6:00 AM)
Average temperature yesterday: 42 °F

High & Low Weather Summary for the Past Weeks

 TemperatureHumidityPressure
High55 °F (Sep 14, 12:00 PM)100% (Sep 22, 7:00 AM)30.15 "Hg (Sep 22, 7:00 AM)
Low34 °F (Sep 15, 9:00 AM)21% (Sep 25, 3:00 PM)29.24 "Hg (Sep 20, 4:00 AM)
Average45 °F60%29.73 "Hg
* Reported Sep 13 12:00 PM — Sep 28 11:00 AM, Ushuaia, Weather by CustomWeather, © 2016

Note: Actual official high and low records may vary slightly from our data, if they occured in-between our weather recording intervals... More about our weather records

Advertising

Ushuaia Weather History for the Previous 24 Hours

Scroll right to see more
 ConditionsComfort  
Time TempWeatherWind HumidityBarometerVisibility
11:00 AM
Wed, Sep 28
46 °FBroken clouds.6 mph62%30.07 "HgN/A
10:00 AM45 °FBroken clouds.No wind66%30.07 "HgN/A
9:00 AM43 °FPartly sunny.6 mph66%30.07 "HgN/A
8:00 AM45 °FPartly sunny.9 mph57%30.04 "HgN/A
7:00 AM45 °FPassing clouds.15 mph66%30.01 "HgN/A
6:00 AM41 °FPassing clouds.6 mph70%30.01 "HgN/A
5:00 AM41 °FPassing clouds.5 mph70%30.01 "HgN/A
4:00 AM41 °FPassing clouds.7 mph70%29.98 "HgN/A
3:00 AM41 °FPassing clouds.7 mph70%29.98 "HgN/A
2:00 AM41 °FPassing clouds.9 mph66%29.98 "HgN/A
1:00 AM41 °FPassing clouds.6 mph70%29.95 "HgN/A
12:00 AM43 °FPassing clouds.5 mph66%29.95 "HgN/A
11:00 PM
Tue, Sep 27
43 °FPassing clouds.6 mph66%29.95 "HgN/A
10:00 PM45 °FPassing clouds.6 mph61%29.95 "HgN/A
9:00 PM45 °FPassing clouds.No wind61%29.95 "HgN/A
8:00 PM46 °FPartly cloudy.8 mph57%29.95 "HgN/A
7:00 PM46 °FBroken clouds.13 mph62%29.92 "HgN/A
6:00 PM46 °FBroken clouds.No wind57%29.92 "HgN/A
5:00 PM46 °FBroken clouds.8 mph57%29.92 "HgN/A
4:00 PM48 °FBroken clouds.6 mph54%29.89 "HgN/A
3:00 PM46 °FBroken clouds.10 mph62%29.89 "HgN/A
2:00 PM48 °FScattered clouds.12 mph58%29.89 "HgN/A
1:00 PM48 °FScattered clouds.7 mph54%29.89 "HgN/A
12:00 PM46 °FScattered clouds.9 mph53%29.89 "HgN/A
Weather by CustomWeather, © 2016

See weather overviewHow to use our weather pages